SCP
0 0 0 0 0 0 0 0 0 0 0 0 0 0 0 0 0 0 0 0 0 0 0 0 0 0 0 0 0 0 0 0 0 0 0 0 0 0 0 0 0 0 0
0 0 0 0 0 0 0 0 0 0 0 0 0 0 0 0 0 0 0 0 0 0 0 0 0 0 0 0 0 0 0 0 0 0 0 0 0 0 0 0 0 0 0
0 0 0 0 0 0 0 0 0 0 0 0 0 0 0 0 0 0 0 0 0 0 0 0 0 0 0 0 0 0 0 0 0 0 0 0 0 0 0 0 0 0 0
0 0 0 0 0 0 0 0 0 0 0 0 0 0 0 0 0 0 0 0 0 0 0 0 0 0 0 0 0 0 0 0 0 0 0 0 0 0 0 0 0 0 0
0 0 0 0 0 0 0 0 0 0 0 0 0 0 0 0 0 0 0 0 0 0 0 0 0 0 0 0 0 0 0 0 0 0 0 0 0 0 0 0 0 0 0
0 0 0 0 0 0 0 0 0 0 0 0 0 0 0 0 0 0 0 0 0 0 0 0 0 0 0 0 0 0 0 0 0 0 0 0 0 0 0 0 0 0 0
0 0 0 0 0 0 0 0 0 0 0 0 0 0 0 0 0 0 0 0 0 0 0 0 0 0 0 0 0 0 0 0 0 0 0 0 0 0 0 0 0 0 0
0 0 0 0 0 0 0 0 0 0 0 0 0 0 0 0 0 0 0 0 0 0 0 0 0 0 0 0 0 0 0 0 0 0 0 0 0 -0 -0 -0 -0 -0 -0
0 0 0 0 0 0 0 0 0 0 0 0 0 0 0 0 0 0 0 0 0 0 0 0 0 0 0 0 0 0 0 0 0 0 0 0 -0 -0 0 0 0 0 0
0 0 0 0 0 0 0 0 0 0 0 0 0 0 0 0 0 0 0 0 0 0 0 0 0 0 0 0 0 0 0 0 0 0 0 0 0 -0 0 0 0 0 0
0 0 0 0 0 0 0 0 0 0 0 0 0 0 0 0 0 0 0 0 0 0 0 0 0 0 0 0 0 0 0 0 0 0 0 0 0 0 0 0 0 0 0
0 0 0 0 0 0 0 0 0 0 0 0 0 0 0 0 0 0 0 0 0 0 0 0 0 0 0 0 0 0 0 0 0 0 0 0 0 0 0 0 0 0 0
0 0 0 0 0 0 0 0 0 0 0 0 0 0 0 0 0 0 0 0 0 0 0 0 0 0 0 0 0 0 0 0 0 0 0 0 0 0 0 0 0 0 0
0 0 0 0 0 0 0 0 0 0 0 0 0 0 0 0 0 0 0 0 0 0 0 0 0 0 0 0 0 0 0 0 0 0 0 0 0 0 0 0 0 0 0
0 0 0 0 0 0 0 0 0 0 0 0 0 0 0 0 0 0 0 0 0 0 0 0 0 0 0 0 0 0 0 0 0 0 0 0 0 0 0 0 0 0 0
0 0 0 0 0 0 0 0 0 0 0 0 0 0 0 0 0 0 0 0 0 0 0 0 0 0 0 0 0 0 0 0 0 0 0 0 0 0 0 0 0 0 0
0 0 0 0 0 0 0 0 0 0 0 0 0 0 0 0 0 0 0 0 0 0 0 0 0 0 0 0 0 0 0 0 0 0 0 0 0 0 0 0 0 0 0
0 0 0 0 0 0 0 0 0 0 0 0 0 0 0 0 0 0 0 0 0 0 0 0 0 0 0 0 0 0 0 0 0 0 0 0 0 0 0 0 0 0 0
0 0 0 0 0 0 0 0 0 0 0 0 0 0 0 0 0 0 0 0 0 0 0 0 0 0 0 0 0 0 0 0 0 0 0 0 0 0 0 0 0 0 0
0 0 0 0 0 0 0 0 0 0 0 0 0 0 0 0 0 0 0 0 0 0 0 0 0 0 0 0 0 0 0 0 0 0 0 0 0 0 0 0 0 0 0
0 0 0 0 0 0 0 0 0 0 0 0 0 0 0 0 0 0 0 0 0 0 0 0 0 0 0 0 0 0 0 0 0 0 0 0 0 0 0 0 0 0 0
0 0 0 0 0 0 0 0 0 0 0 0 0 0 0 0 0 0 0 0 0 0 0 0 0 0 0 0 0 0 0 0 0 0 0 0 0 0 0 0 0 0 0
0 0 0 0 0 0 0 0 0 0 0 0 0 0 0 0 0 0 0 0 0 0 0 0 0 0 0 0 0 0 0 0 0 0 0 0 0 0 0 0 0 0 0
0 0 0 0 0 0 0 0 0 0 0 0 0 0 0 0 0 0 0 0 0 0 0 0 0 0 0 0 0 0 0 0 0 0 0 0 0 0 0 0 0 0 0
0 0 0 0 0 0 0 0 0 0 0 0 0 0 0 0 0 0 0 0 0 0 0 0 0 0 0 0 0 0 0 0 0 0 0 0 0 0 0 0 0 0 0
0 0 0 0 0 0 0 0 0 0 0 0 0 0 0 0 0 0 0 0 0 0 0 0 0 0 0 0 0 0 0 0 0 0 0 0 0 0 0 0 0 0 0
Wind_Speed
3 4 5 6 6 7 7 7 8 7 6 5 7 8 9 9 10 10 13 13 13 13 11 9 10 9 9 9 9 6 6 6 6 4 4 2 1 2 3 3 3 4 5
6 5 6 6 7 8 8 8 8 8 8 7 7 7 9 9 9 9 12 14 14 13 11 12 10 10 9 11 11 9 6 6 7 6 5 4 1 3 3 3 4 5 5
8 7 6 6 7 8 7 7 8 9 10 10 9 9 8 8 8 10 10 12 13 14 13 13 11 11 10 10 12 11 11 8 8 8 7 5 5 7 3 4 4 6 7
8 7 6 6 7 7 7 8 9 10 9 8 8 10 9 9 8 8 9 11 12 13 13 13 12 12 10 11 10 11 9 9 7 6 6 5 5 6 7 4 5 8 9
10 8 6 6 6 6 6 7 9 10 10 10 11 13 12 11 9 9 10 10 10 11 12 11 11 10 9 10 10 10 10 8 8 6 5 5 4 4 5 8 9 9 7
11 9 7 6 6 6 7 7 10 11 10 11 11 13 14 12 11 10 9 8 7 8 10 10 9 9 8 8 8 8 9 7 7 5 5 5 4 6 6 9 11 11 9
12 11 10 9 8 8 8 8 10 11 10 11 11 12 12 12 11 9 8 7 6 6 8 7 7 7 7 7 6 6 6 7 6 5 4 4 4 5 6 9 10 13 11
14 13 12 11 10 9 9 9 10 11 10 10 10 10 10 8 7 8 7 7 5 5 6 6 6 6 6 6 5 4 5 5 5 6 6 5 5 5 6 7 9 12 11
17 15 13 12 11 11 10 11 11 11 10 10 10 9 9 8 8 8 7 5 5 4 5 5 5 5 5 5 5 4 5 5 5 6 6 5 5 5 6 7 7 9 13
17 16 14 13 12 11 11 10 11 11 11 10 9 7 8 8 8 7 7 6 5 4 4 4 4 4 4 5 5 4 5 6 6 5 7 7 6 6 7 7 8 8 11
20 17 15 14 13 12 12 11 11 11 11 10 9 9 8 8 7 6 6 5 5 4 3 2 3 3 4 5 5 5 6 7 7 7 8 9 9 8 7 8 8 9 10
19 18 16 15 14 14 14 13 12 12 11 10 9 9 8 8 7 6 6 5 4 3 2 1 2 3 4 5 5 6 6 7 8 9 9 10 8 11 9 9 10 10 11
19 17 16 16 16 16 15 14 14 13 12 11 10 9 9 8 8 7 6 5 4 3 2 0 1 2 4 4 5 6 7 8 8 9 10 10 11 11 10 11 11 11 11
19 18 17 17 16 16 16 16 15 13 12 11 11 11 10 9 8 7 6 5 4 4 2 1 1 2 4 4 5 6 7 8 9 9 10 10 11 12 13 11 12 12 13
19 20 18 17 16 16 16 16 15 14 13 12 12 11 10 8 8 7 6 6 5 4 2 2 2 3 4 4 6 7 8 9 10 10 10 10 13 15 14 12 13 13 12
19 18 17 16 16 17 16 16 16 15 13 13 12 10 9 8 8 8 7 6 5 4 4 4 4 4 4 6 9 9 9 9 10 11 10 11 12 14 17 20 19 18 15
16 16 16 15 15 16 16 17 16 13 11 11 9 9 9 9 9 8 7 7 6 5 5 5 5 5 6 8 10 11 10 10 9 10 10 10 10 14 13 16 19 18 20
11 12 11 12 12 12 13 13 11 11 11 11 10 10 10 10 9 9 8 7 6 6 5 5 5 6 6 9 11 12 10 9 9 10 11 13 13 13 16 16 16 16 16
9 9 9 9 9 11 11 10 10 10 11 11 11 11 11 11 10 10 9 8 7 6 6 5 6 6 7 9 11 11 8 8 10 10 12 13 14 19 22 19 18 18 17
6 6 7 7 8 9 9 10 11 11 12 13 12 11 11 11 11 11 9 7 6 6 5 6 6 7 7 9 11 10 6 8 9 9 11 14 17 21 24 19 18 19 18
6 6 7 7 8 8 9 10 10 13 12 9 8 9 10 10 10 8 7 7 6 5 5 6 6 7 8 9 10 10 7 8 9 9 10 10 20 24 26 24 18 21 22
6 6 6 7 6 8 10 10 12 11 7 8 9 9 9 8 7 8 7 6 6 6 6 6 6 6 6 7 8 11 11 12 10 10 10 12 22 25 27 21 21 26 21
6 6 7 6 5 7 9 12 10 6 7 8 8 8 8 7 7 8 8 6 6 6 5 5 5 4 4 6 10 11 12 13 10 9 15 19 22 23 17 18 21 16 9
6 6 6 7 7 7 9 10 5 6 8 8 8 8 8 8 7 6 6 6 7 6 6 6 5 4 4 5 5 5 7 9 9 8 9 14 16 14 13 12 11 8 8
6 6 7 9 9 7 7 6 5 7 8 8 7 8 7 7 7 7 7 8 7 7 7 6 5 5 5 6 9 8 7 6 6 6 4 6 7 7 8 8 8 8 8
6 6 8 8 7 5 5 5 6 7 8 8 8 7 6 6 6 6 6 12 12 13 16 15 13 10 12 13 13 13 12 10 8 4 4 5 6 7 8 9 9 9 9
Wind_Direction
88 62 54 52 58 60 65 71 78 82 92 91 87 81 71 64 60 54 49 49 49 49 51 54 50 47 48 41 31 27 31 24 353 328 323 321 26 37 33 19 19 27 14
132 96 76 69 66 66 68 71 74 78 81 87 88 86 91 76 70 64 56 52 53 52 53 53 52 47 48 43 35 29 25 29 18 357 332 332 336 47 15 22 20 15 6
145 125 98 81 76 68 64 72 77 80 85 96 102 107 98 89 74 64 60 52 54 57 58 57 57 51 49 45 38 31 32 28 30 27 7 348 343 331 323 358 356 360 351
154 139 123 100 83 74 77 82 84 84 87 95 103 104 100 94 85 80 75 65 57 57 57 58 58 55 52 48 42 38 33 32 27 25 24 14 340 324 320 319 341 346 332
162 151 135 116 99 91 91 95 94 90 92 97 101 101 99 101 101 95 84 75 64 58 56 56 57 55 52 48 44 41 38 35 32 23 8 1 347 346 312 312 323 323 323
166 155 143 135 122 114 108 109 105 98 99 101 103 107 111 114 111 103 96 84 75 65 58 58 57 55 52 45 41 40 40 33 29 23 17 3 344 337 319 309 314 315 317
170 167 164 159 149 140 130 125 119 111 110 109 109 111 114 114 111 108 101 97 85 72 60 58 57 53 48 43 36 35 31 24 17 9 354 341 326 316 307 303 307 306 308
178 177 174 169 163 157 151 144 135 128 127 122 118 117 115 111 109 108 107 100 93 83 75 66 61 54 44 35 26 25 19 4 355 348 338 320 314 310 303 301 305 303 299
183 182 179 177 174 171 168 160 151 144 141 137 132 129 127 125 123 120 113 106 103 99 85 71 60 47 36 22 10 6 0 345 338 330 325 315 309 305 300 295 291 292 298
185 185 184 184 182 179 173 170 165 158 154 152 147 144 141 138 137 134 127 121 115 108 93 72 52 34 20 7 358 347 344 335 330 322 316 314 309 303 296 291 288 282 283
187 188 187 187 184 181 180 179 176 169 167 166 161 157 155 153 149 143 139 135 129 120 100 66 36 17 4 354 345 341 333 327 322 320 316 312 310 305 301 296 289 284 282
190 190 188 185 186 187 187 186 184 182 179 174 171 169 165 165 164 158 154 152 146 135 114 72 19 2 348 341 335 329 325 321 319 320 316 314 314 308 303 299 295 291 287
191 191 191 192 193 192 191 191 191 189 184 180 180 179 179 180 178 172 167 165 161 155 149 169 342 335 330 324 322 319 315 314 312 312 311 311 311 307 306 304 299 295 293
193 195 197 198 197 195 195 194 195 193 188 187 190 192 192 189 184 177 173 173 174 177 183 203 278 302 306 303 309 308 307 306 305 305 304 304 304 305 306 302 299 299 298
197 200 201 200 198 198 199 198 198 194 192 194 199 202 196 187 179 176 176 176 181 185 196 219 247 272 282 288 303 306 305 304 303 301 300 299 300 298 296 295 300 301 297
201 203 204 202 201 200 200 199 200 196 194 199 204 199 187 181 181 180 178 182 187 192 204 220 237 257 264 283 296 303 303 300 297 300 301 299 293 295 298 297 296 294 293
201 202 203 204 203 202 200 201 200 192 190 198 198 190 187 187 187 183 185 193 196 199 212 224 234 250 264 280 293 300 299 293 291 294 296 296 296 297 295 297 297 294 288
199 201 201 203 203 201 200 200 191 185 190 197 199 194 192 192 186 187 196 199 198 204 215 223 235 250 259 278 292 298 292 286 285 287 290 292 294 296 298 296 292 289 286
193 194 195 194 191 194 192 183 183 186 192 201 203 198 193 191 188 195 200 198 199 208 216 222 231 246 262 277 288 292 289 283 285 286 286 288 291 294 298 298 296 293 289
181 180 174 175 187 190 176 178 187 190 202 208 205 195 190 190 194 197 194 192 198 210 217 227 233 245 257 271 281 289 283 284 287 287 286 286 292 298 301 299 296 294 295
179 171 169 182 193 176 170 187 193 206 211 200 186 184 188 191 191 185 184 184 197 210 223 236 242 244 249 263 273 279 278 282 290 293 296 296 301 302 304 305 302 301 306
177 175 183 201 195 173 179 197 211 214 191 175 181 184 182 179 175 175 179 187 197 211 226 234 244 237 239 249 263 274 282 289 292 293 296 299 306 310 312 311 307 311 313
190 187 195 209 203 186 192 208 218 187 165 173 183 177 171 174 172 179 183 190 200 219 227 228 239 237 234 249 265 278 285 289 289 290 298 308 314 316 314 312 315 318 312
198 191 192 211 220 204 205 219 200 153 164 182 182 174 176 182 183 193 196 200 204 213 221 227 234 238 241 248 253 261 274 283 290 298 311 317 316 316 313 314 316 313 305
198 190 200 215 224 210 207 204 168 159 177 184 182 184 190 193 191 202 209 210 217 218 220 224 227 234 245 245 260 276 283 291 302 323 319 313 315 318 318 317 314 311 308
197 198 208 218 222 200 194 177 166 170 177 183 188 189 192 193 200 207 224 234 236 238 240 239 236 237 245 264 273 281 288 302 323 323 298 300 303 307 312 314 315 314 312